Location: Unnamed
(48.6007°N, 2.4808°E)
Time: 12:56:25
(UTC+02:00)

SEEDS - Pass Details

Date: 07 April 2023
Orbit: 568 x 587 km, 97.7° (Epoch: 07 June)

Event Time Altitude Azimuth Distance (km) Brightness Sun altitude
Rises 05:20:38 0° 20° (NNE) 2,840 ? -18.4°
Reaches altitude 10° 05:22:57 10° 29° (NNE) 1,933 ? -18.1°
Maximum altitude 05:26:51 37° 97° (E) 929 ? -17.6°
Drops below altitude 10° 05:30:43 10° 165° (SSE) 1,913 ? -17.0°
Enters shadow 05:31:59 - 171° (S) 2,403 ? -16.9°
